Location: Greenwich
(51.4790°N, 0.0090°E)
Time: 14:21:28
(UTC+01:00)

Altair - Pass Details

Date: 19 June 2025
Orbit: 1502 x 1682 km, 47.2° (Epoch: 19 July)

Event Time Altitude Azimuth Distance (km) Brightness Sun altitude
Rises 00:30:42 0° 228° (SW) 4,635 9.7 -14.8°
Reaches altitude 10° 00:33:48 10° 223° (SW) 3,666 9.1 -14.9°
Maximum altitude 00:42:31 49° 152° (SSE) 1,917 7.6 -15.0°
Drops below altitude 10° 00:51:32 10° 82° (E) 3,787 9.6 -15.1°
Sets 00:54:47 0° 77° (ENE) 4,799 10.2 -15.1°
